[[{"header":{"parameterUnit":"m.s-1","parameterCategory":1,"la1":30.2991,"la2":30.254,"lo1":-89.0895,"lo2":-89.0444,"dy":0.0017,"dx":0.0017,"nx":28,"ny":28,"refTime":"2023-09-08T21:00:00:Z","depth":0,"parameterNumber":2,"parameterNumberName":"U-component_of_WINDS"},"data":[0,0,0,0,0,0,0,0,0,0,0,0,0,0,0,0,0,0,0,0,0,0,0,0,0,0,0,0,0,0,0,0,0,0,0,0,0,0,0,0,0,0,0,0,0,0,0,0,0,0,0,0,0,0,0,0,0,0,0.4929,0.4929,0,0.5004,0.5005,0.5006,0.5025,0.5025,0.5024,0.5024,0.5102,0.5104,0.5107,0,0,0,0,0,0,0,0,0,0,0,0,0,0.4802,0.4805,0.4929,0.4929,0.493,0.5004,0.5005,0.5006,0.5025,0.5025,0.5024,0.5024,0.5101,0.5104,0.5107,0,0,0,0,0,0,0,0,0,0,0,0,0,0.4865,0.4805,0.4928,0.4949,0.4951,0.5004,0.5005,0.5006,0.5025,0.5025,0.5024,0.5023,0.51,0.5104,0.5107,0.5145,0,0,0.5119,0.5121,0,0,0,0,0,0,0,0,0.4862,0.487,0.4945,0.4948,0.4951,0.5004,0.4989,0.5053,0.5026,0.4997,0.5024,0.5023,0.507,0.5076,0.5092,0.5149,0.5152,0.5119,0.5122,0.5123,0.5124,0,0,0,0,0,0,0,0.4857,0.4867,0.4958,0.4946,0.4949,0.4955,0.4963,0.5001,0.5037,0.5,0.5001,0.501,0.5072,0.5088,0.5094,0.5153,0.5119,0.5123,0.5125,0.5126,0.5245,0.5245,0,0,0,0,0,0,0.4849,0.4863,0.4956,0.4961,0.4904,0.4958,0.4967,0.4988,0.5036,0.5043,0.5011,0.5011,0.5082,0.509,0.5097,0.5144,0.5123,0.5127,0.5129,0.5244,0.5245,0.5246,0,0,0,0,0,0,0.4847,0.4857,0.4953,0.4912,0.4925,0.496,0.4984,0.499,0.5007,0.5045,0.5051,0.5021,0.5082,0.5092,0.5133,0.5147,0.5128,0.5132,0.5243,0.5244,0.5245,0.5239,0,0,0,0,0,0,0.4843,0.4856,0.4871,0.4913,0.4927,0.4987,0.4985,0.4992,0.5013,0.5014,0.5056,0.5063,0.5082,0.5127,0.5137,0.5152,0.5135,0.5242,0.5243,0.5245,0.5238,0.524,0.5241,0,0,0,0,0,0.4838,0.4866,0.4871,0.4882,0.4946,0.4988,0.4997,0.5018,0.5014,0.5029,0.5053,0.5061,0.5144,0.5131,0.5142,0.5159,0.5241,0.5243,0.5245,0.5237,0.524,0.5241,0,0,0,0,0,0,0.4825,0.4872,0.4878,0.492,0.495,0.4991,0.5011,0.502,0.5052,0.5051,0.5077,0.5087,0.5126,0.5147,0.5132,0.5198,0.5192,0.5197,0.5183,0.5186,0.5187,0.5182,0.5138,0,0,0,0,0,0.4827,0.4857,0.4897,0.493,0.4945,0.4975,0.4994,0.5009,0.5041,0.5054,0.5081,0.5112,0.5145,0.5166,0.5199,0.5241,0.5251,0.5258,0.526,0.5261,0.5264,0.5289,0.5292,0.5252,0.5252,0.5252,0,0,0.4831,0.4861,0.4878,0.4928,0.4953,0.4984,0.4986,0.5019,0.5042,0.5059,0.5099,0.5121,0.5157,0.5199,0.5219,0.5217,0.5278,0.5263,0.5264,0.5267,0.5291,0.5295,0.5298,0.5253,0.5253,0.5253,0,0,0.4856,0.4881,0.4911,0.4936,0.4973,0.4994,0.5001,0.5041,0.5056,0.5097,0.511,0.5139,0.5195,0.522,0.5241,0.5275,0.5283,0.5284,0.5294,0.5317,0.532,0.5323,0.5336,0.534,0.5288,0.5288,0.5288,0,0.4857,0.4904,0.4926,0.4958,0.498,0.4996,0.5028,0.5051,0.5097,0.5112,0.5109,0.518,0.5206,0.5254,0.5263,0.5278,0.5288,0.528,0.5318,0.5321,0.5324,0.5336,0.5341,0.5288,0.5288,0.5288,0.5288,0,0.4903,0.4936,0.4956,0.5,0.5024,0.5056,0.5084,0.5105,0.5117,0.5138,0.518,0.5211,0.525,0.5263,0.5275,0.5313,0.5311,0.5313,0.5308,0.5327,0.534,0.5344,0.5288,0.5288,0.5288,0.5288,0,0,0.4922,0.4977,0.4985,0.5005,0.5048,0.5073,0.5106,0.5144,0.5163,0.5194,0.5222,0.527,0.5272,0.5295,0.531,0.533,0.5356,0.533,0.5331,0.5334,0.54,0.5399,0.5404,0.5361,0.5362,0.5363,0.5397,0,0.4952,0.501,0.5031,0.508,0.5111,0.5126,0.5155,0.5184,0.5204,0.5233,0.5256,0.5289,0.5289,0.5303,0.5324,0.5348,0.5369,0.5346,0.5389,0.539,0.5379,0.541,0.5409,0.544,0.5402,0.5403,0.5403,0,0.4994,0.5026,0.5078,0.5117,0.513,0.5156,0.5193,0.522,0.5254,0.5267,0.5293,0.5306,0.5342,0.5334,0.5383,0.5367,0.5385,0.54,0.5402,0.5407,0.5398,0.5417,0.545,0.5455,0.5411,0.541,0.541,0,0.5003,0.5059,0.5097,0.5114,0.516,0.5178,0.5198,0.5231,0.5252,0.5285,0.5299,0.5335,0.5355,0.5382,0.5406,0.5398,0.5453,0.5447,0.5465,0.5465,0.5477,0.5476,0.5514,0.5487,0.5487,0.5487,0.5487,0,0.5035,0.5066,0.5102,0.5125,0.5161,0.5184,0.5219,0.524,0.5269,0.5298,0.5313,0.5339,0.5368,0.5398,0.5416,0.5454,0.5463,0.5475,0.548,0.5474,0.5473,0.5487,0.5486,0.5489,0.5488,0.5488,0.5488,0,0.5051,0.5076,0.5119,0.5159,0.517,0.5194,0.5229,0.5253,0.5273,0.5309,0.5318,0.5351,0.5387,0.5413,0.5459,0.5471,0.5513,0.5517,0.5501,0.5504,0.552,0.5519,0.557,0.5578,0.5545,0.5546,0.5546,0,0.507,0.5094,0.5137,0.5157,0.5177,0.5209,0.5231,0.5255,0.5278,0.5318,0.5337,0.5374,0.5405,0.5462,0.549,0.5526,0.5531,0.5547,0.5537,0.5531,0.5532,0.5531,0.5534,0.5548,0.5549,0.5549,0.5549,0,0.5101,0.5112,0.5143,0.5179,0.5205,0.5234,0.5264,0.528,0.5309,0.5334,0.5371,0.5395,0.5442,0.5479,0.5518,0.5539,0.5549,0.5552,0.5558,0.5553,0.5543,0.5549,0.5506,0.5551,0.5551,0.555,0.555,0.555,0.5119,0.5142,0.5175,0.521,0.5235,0.5262,0.5286,0.531,0.5341,0.5382,0.5394,0.5433,0.5466,0.5519,0.554,0.5571,0.557,0.5579,0.5581,0.5583,0.5583,0.5538,0.5578,0.5578,0.5578,0.5578,0.5578,0,0.5152,0.5174,0.5205,0.5246,0.5274,0.528,0.5314,0.5336,0.537,0.54,0.543,0.5473,0.5509,0.5539,0.5576,0.5595,0.5601,0.5604,0.5603,0.5608,0.5582,0.5573,0.5599,0.5599,0.5599,0.5599,0.5599,0.5599,0.5172,0.521,0.5225,0.5277,0.5299,0.5337,0.5355,0.5381,0.5405,0.5452,0.5482,0.5501,0.5532,0.5571,0.5604,0.5613,0.5626,0.5628,0.5637,0.5612,0.561,0.5608,0.56,0.5631,0.5631,0.5661,0.5662,0.5662]},{"header":{"parameterUnit":"m.s-1","parameterCategory":1,"la1":30.2991,"la2":30.254,"lo1":-89.0895,"lo2":-89.0444,"dy":0.0017,"dx":0.0017,"nx":28,"ny":28,"refTime":"2023-09-08T21:00:00:Z","depth":0,"parameterNumber":3,"parameterNumberName":"V-component_of_WINDS"},"data":[0,0,0,0,0,0,0,0,0,0,0,0,0,0,0,0,0,0,0,0,0,0,0,0,0,0,0,0,0,0,0,0,0,0,0,0,0,0,0,0,0,0,0,0,0,0,0,0,0,0,0,0,0,0,0,0,0,0,-1.1869,-1.1868,0,-1.1794,-1.1793,-1.1792,-1.1749,-1.1749,-1.1748,-1.1748,-1.167,-1.1668,-1.1666,0,0,0,0,0,0,0,0,0,0,0,0,0,-1.1976,-1.1974,-1.1869,-1.1868,-1.1867,-1.1794,-1.1793,-1.1792,-1.1749,-1.1749,-1.1748,-1.1748,-1.167,-1.1668,-1.1666,0,0,0,0,0,0,0,0,0,0,0,0,0,-1.1918,-1.1974,-1.1869,-1.1837,-1.1833,-1.1795,-1.1793,-1.1792,-1.1749,-1.1749,-1.1748,-1.1748,-1.1671,-1.1668,-1.1665,-1.1652,0,0,-1.1656,-1.1655,0,0,0,0,0,0,0,0,-1.1921,-1.1914,-1.1843,-1.1839,-1.1835,-1.1781,-1.1802,-1.1745,-1.1749,-1.1781,-1.1748,-1.1748,-1.1707,-1.1701,-1.1687,-1.1649,-1.1645,-1.1656,-1.1654,-1.1653,-1.1652,0,0,0,0,0,0,0,-1.1925,-1.1917,-1.1839,-1.1842,-1.1837,-1.1827,-1.1818,-1.1791,-1.1746,-1.1778,-1.1775,-1.1767,-1.1704,-1.169,-1.1685,-1.1644,-1.1656,-1.1654,-1.1652,-1.1651,-1.1595,-1.1596,0,0,0,0,0,0,-1.1935,-1.1921,-1.1842,-1.1837,-1.1879,-1.1825,-1.1815,-1.1798,-1.1746,-1.1738,-1.1767,-1.1765,-1.1695,-1.1688,-1.1682,-1.1666,-1.1653,-1.165,-1.1649,-1.1595,-1.1595,-1.1596,0,0,0,0,0,0,-1.1937,-1.1928,-1.1845,-1.1878,-1.1867,-1.1823,-1.1805,-1.1797,-1.1783,-1.1738,-1.1729,-1.176,-1.1695,-1.1686,-1.1661,-1.1663,-1.1649,-1.1646,-1.1595,-1.1595,-1.1596,-1.1633,0,0,0,0,0,0,-1.194,-1.1929,-1.1923,-1.1878,-1.1865,-1.1825,-1.1805,-1.1796,-1.1778,-1.1774,-1.1729,-1.1722,-1.1694,-1.1666,-1.1658,-1.1658,-1.1644,-1.1594,-1.1595,-1.1595,-1.1631,-1.1634,-1.1637,0,0,0,0,0,-1.1944,-1.1935,-1.1923,-1.1914,-1.1857,-1.1825,-1.1817,-1.1786,-1.1778,-1.1772,-1.1744,-1.1723,-1.1664,-1.1663,-1.1655,-1.1654,-1.1594,-1.1595,-1.1595,-1.163,-1.1634,-1.1637,0,0,0,0,0,0,-1.1979,-1.1929,-1.1915,-1.1891,-1.1863,-1.1818,-1.1809,-1.1791,-1.1764,-1.1761,-1.1723,-1.1713,-1.1693,-1.1671,-1.1671,-1.1641,-1.1627,-1.1626,-1.1656,-1.1659,-1.1662,-1.1668,-1.1642,0,0,0,0,0,-1.1985,-1.1964,-1.192,-1.1903,-1.189,-1.1853,-1.1837,-1.1816,-1.1785,-1.1773,-1.1742,-1.1713,-1.1688,-1.1672,-1.1647,-1.1628,-1.1619,-1.1624,-1.1627,-1.1629,-1.1629,-1.1621,-1.1623,-1.1598,-1.1598,-1.1598,0,0,-1.1995,-1.1964,-1.1953,-1.191,-1.1885,-1.1865,-1.1842,-1.182,-1.1805,-1.1769,-1.1745,-1.1722,-1.1687,-1.1666,-1.1655,-1.1647,-1.1634,-1.163,-1.1633,-1.1631,-1.1622,-1.1624,-1.1627,-1.1598,-1.1598,-1.1598,0,0,-1.2003,-1.1977,-1.1962,-1.1939,-1.1904,-1.188,-1.1877,-1.1835,-1.1819,-1.1794,-1.1768,-1.1749,-1.1706,-1.1684,-1.1666,-1.1671,-1.1652,-1.1664,-1.1679,-1.1672,-1.1674,-1.1676,-1.168,-1.1682,-1.1664,-1.1664,-1.1664,0,-1.202,-1.1988,-1.1956,-1.1937,-1.192,-1.1889,-1.1875,-1.1854,-1.1811,-1.1801,-1.1792,-1.1741,-1.1714,-1.169,-1.1692,-1.1678,-1.1674,-1.1669,-1.1677,-1.1678,-1.1679,-1.1683,-1.1684,-1.1666,-1.1665,-1.1665,-1.1665,0,-1.2011,-1.199,-1.1982,-1.1945,-1.1927,-1.191,-1.1877,-1.1863,-1.1845,-1.1822,-1.1799,-1.1767,-1.1736,-1.1728,-1.1709,-1.1702,-1.1699,-1.1684,-1.1669,-1.1684,-1.1687,-1.1688,-1.1668,-1.1668,-1.1667,-1.1667,0,0,-1.2036,-1.1986,-1.1983,-1.1968,-1.1929,-1.1912,-1.1895,-1.1867,-1.1856,-1.1829,-1.1815,-1.1782,-1.177,-1.1751,-1.1729,-1.1722,-1.1732,-1.1709,-1.1707,-1.1716,-1.1726,-1.1739,-1.1741,-1.1719,-1.1719,-1.1719,-1.173,0,-1.204,-1.2009,-1.1983,-1.1962,-1.1944,-1.1916,-1.1902,-1.1877,-1.1856,-1.1838,-1.1814,-1.1792,-1.1776,-1.1765,-1.1758,-1.1732,-1.1734,-1.1731,-1.1707,-1.1707,-1.1718,-1.1741,-1.1753,-1.1765,-1.1731,-1.1731,-1.1731,0,-1.2039,-1.2017,-1.1995,-1.1962,-1.1953,-1.1941,-1.1915,-1.1897,-1.187,-1.1855,-1.1837,-1.1815,-1.1797,-1.1785,-1.1762,-1.1761,-1.175,-1.1737,-1.1736,-1.1733,-1.172,-1.1741,-1.1767,-1.177,-1.1732,-1.1732,-1.1732,0,-1.2063,-1.2026,-1.201,-1.1997,-1.1957,-1.195,-1.1933,-1.1905,-1.1892,-1.1869,-1.186,-1.1835,-1.1822,-1.1803,-1.1776,-1.1769,-1.1757,-1.1742,-1.1746,-1.1747,-1.1745,-1.1745,-1.1772,-1.1736,-1.1736,-1.1735,-1.1735,0,-1.207,-1.2058,-1.2021,-1.201,-1.1997,-1.1968,-1.1956,-1.1936,-1.1913,-1.19,-1.1873,-1.1861,-1.1825,-1.181,-1.1788,-1.1774,-1.1768,-1.1757,-1.1751,-1.176,-1.1762,-1.1752,-1.1751,-1.1736,-1.1736,-1.1736,-1.1736,0,-1.2094,-1.2067,-1.2048,-1.2014,-1.2005,-1.1997,-1.1968,-1.1958,-1.1938,-1.1921,-1.1916,-1.1883,-1.1863,-1.1835,-1.1805,-1.1792,-1.1782,-1.1772,-1.1792,-1.1789,-1.1796,-1.1796,-1.1818,-1.182,-1.1782,-1.1782,-1.1782,0,-1.21,-1.2091,-1.2057,-1.2048,-1.2032,-1.2016,-1.2003,-1.1974,-1.1962,-1.1933,-1.1927,-1.1906,-1.1887,-1.1858,-1.1832,-1.1811,-1.1801,-1.181,-1.1797,-1.1808,-1.1804,-1.1806,-1.1806,-1.1813,-1.1814,-1.1814,-1.1815,0,-1.2116,-1.2105,-1.2087,-1.2067,-1.2052,-1.2034,-1.2015,-1.2008,-1.1976,-1.1963,-1.1944,-1.1931,-1.1903,-1.1884,-1.186,-1.1843,-1.1824,-1.1819,-1.182,-1.1829,-1.1842,-1.1837,-1.1802,-1.1819,-1.1818,-1.1818,-1.1818,-1.1818,-1.2132,-1.2124,-1.2101,-1.2083,-1.2067,-1.2051,-1.2041,-1.2021,-1.2005,-1.1982,-1.1966,-1.1949,-1.1925,-1.1892,-1.1877,-1.1863,-1.1855,-1.1855,-1.1855,-1.1856,-1.186,-1.1843,-1.1858,-1.1858,-1.1858,-1.1858,-1.1858,0,-1.2148,-1.2133,-1.2117,-1.2093,-1.208,-1.2066,-1.2045,-1.2035,-1.2021,-1.2001,-1.1985,-1.1966,-1.1948,-1.1922,-1.1903,-1.1897,-1.1889,-1.1893,-1.1894,-1.1891,-1.1867,-1.187,-1.1901,-1.1901,-1.1901,-1.1901,-1.1901,-1.1901,-1.2154,-1.2142,-1.2129,-1.211,-1.2094,-1.2079,-1.2069,-1.2054,-1.2039,-1.2019,-1.2005,-1.1989,-1.1968,-1.1948,-1.1931,-1.1924,-1.1919,-1.1927,-1.1918,-1.1896,-1.1892,-1.1888,-1.1891,-1.1926,-1.1926,-1.1943,-1.1943,-1.1943]}]]